Starlink 32889

operational
NORAD ID: 62961 Int'l Des: 2025-029 Owner: SPXS Country: US Constellation: starlink
LEOCIRCULAR

About Starlink 32889

Description loading...

Live Position

Loading 3D Globe...

Upcoming Passes

Altitude History

Altitude vs Time

uPlot chart will show altitude changes over time

Two-Line Element Set

1 62961U 25029P 26035.18532842 .00014270 00000-0 49293-3 0 9995
2 62961 53.1610 28.3838 0001542 111.8664 248.2501 15.30203716 56183
Epoch: Feb 4, 2026 • Age: 4 hours

Current Status

Altitude 494.7 km
Velocity 7.62 km/s
Sub-Earth Point -53.29°S, 29.58°E
Launch Date Feb 11, 2025
Age 0.9 years
Type internet

Technical Details

Classification Payload
Mass 730.00 kg
Dry Mass 700.00 kg
Total Mass 730.00 kg
Length 0.30 m
Diameter 4.10 m
Span 29.00 m
Shape Box + pan
Manufacturer SPXS
Bus Type Starlink V2M
Phase Status In Orbit
Owner/State SPXS/US

Large Constellations

Loading constellations...